QPF
0.00 0.00 0.00 0.00 0.00 0.00 0.00 0.00 0.00 0.00 0.00 0.00 0.00 0.00 0.00 0.00 0.00 0.00 0.00 0.00 0.00 0.00 0.00 0.00 0.00 0.00 0.00 0.00 0.00 0.00 0.00 0.00 0.00 0.00 0.00 0.00 0.00 0.00 0.00 0.00 0.00 0.00 0.00
0.00 0.00 0.00 0.00 0.00 0.00 0.00 0.00 0.00 0.00 0.00 0.00 0.00 0.00 0.00 0.00 0.00 0.00 0.00 0.00 0.00 0.00 0.00 0.00 0.00 0.00 0.00 0.00 0.00 0.00 0.00 0.00 0.00 0.00 0.00 0.00 0.00 0.00 0.00 0.00 0.00 0.00 0.00
0.00 0.00 0.00 0.00 0.00 0.00 0.00 0.00 0.00 0.00 0.00 0.00 0.00 0.00 0.00 0.00 0.00 0.00 0.00 0.00 0.00 0.00 0.00 0.00 0.00 0.00 0.00 0.00 0.00 0.00 0.00 0.00 0.00 0.00 0.00 0.00 0.00 0.00 0.00 0.00 0.00 0.00 0.00
0.00 0.00 0.00 0.00 0.00 0.00 0.00 0.00 0.00 0.00 0.00 0.00 0.00 0.00 0.00 0.00 0.00 0.00 0.00 0.00 0.00 0.00 0.00 0.00 0.00 0.00 0.00 0.00 0.00 0.00 0.00 0.00 0.00 0.00 0.00 0.00 0.00 0.00 0.00 0.00 0.00 0.00 0.00
0.00 0.00 0.00 0.00 0.00 0.00 0.00 0.00 0.00 0.00 0.00 0.00 0.00 0.00 0.00 0.00 0.00 0.00 0.00 0.00 0.00 0.00 0.00 0.00 0.00 0.00 0.00 0.00 0.00 0.00 0.00 0.00 0.00 0.00 0.00 0.00 0.00 0.00 0.00 0.00 0.00 0.00 0.00
0.00 0.00 0.00 0.00 0.00 0.00 0.00 0.00 0.00 0.00 0.00 0.00 0.00 0.00 0.00 0.00 0.00 0.00 0.00 0.00 0.00 0.00 0.00 0.00 0.00 0.00 0.00 0.00 0.00 0.00 0.00 0.00 0.00 0.00 0.00 0.00 0.00 0.00 0.00 0.00 0.00 0.00 0.00
0.00 0.00 0.00 0.00 0.00 0.00 0.00 0.00 0.00 0.00 0.00 0.00 0.00 0.00 0.00 0.00 0.00 0.00 0.00 0.00 0.00 0.00 0.00 0.00 0.00 0.00 0.00 0.00 0.00 0.00 0.00 0.00 0.00 0.00 0.00 0.00 0.00 0.00 0.00 0.00 0.00 0.00 0.00
0.00 0.00 0.00 0.00 0.00 0.00 0.00 0.00 0.00 0.00 0.00 0.00 0.00 0.00 0.00 0.00 0.00 0.00 0.00 0.00 0.00 0.00 0.00 0.00 0.00 0.00 0.00 0.00 0.00 0.00 0.00 0.00 0.00 0.00 0.00 0.00 0.00 0.00 0.00 0.00 0.00 0.00 0.00
0.00 0.00 0.00 0.00 0.00 0.00 0.00 0.00 0.00 0.00 0.00 0.00 0.00 0.00 0.00 0.00 0.00 0.00 0.00 0.00 0.00 0.00 0.00 0.00 0.00 0.00 0.00 0.00 0.00 0.00 0.00 0.00 0.00 0.00 0.00 0.00 0.00 0.00 0.00 0.00 0.00 0.00 0.00
0.00 0.00 0.00 0.00 0.00 0.00 0.00 0.00 0.00 0.00 0.00 0.00 0.00 0.00 0.00 0.00 0.00 0.00 0.00 0.00 0.00 0.00 0.00 0.00 0.00 0.00 0.00 0.00 0.00 0.00 0.00 0.00 0.00 0.00 0.00 0.00 0.00 0.00 0.00 0.00 0.00 0.00 0.00
0.00 0.00 0.00 0.00 0.00 0.00 0.00 0.00 0.00 0.00 0.00 0.00 0.00 0.00 0.00 0.00 0.00 0.00 0.00 0.00 0.00 0.00 0.00 0.00 0.00 0.00 0.00 0.00 0.00 0.00 0.00 0.00 0.00 0.00 0.00 0.00 0.00 0.00 0.00 0.00 0.00 0.00 0.00
0.00 0.00 0.00 0.00 0.00 0.00 0.00 0.00 0.00 0.00 0.00 0.00 0.00 0.00 0.00 0.00 0.00 0.00 0.00 0.00 0.00 0.00 0.00 0.00 0.00 0.00 0.00 0.00 0.00 0.00 0.00 0.00 0.00 0.00 0.00 0.00 0.00 0.00 0.00 0.00 0.00 0.00 0.00
0.00 0.00 0.00 0.00 0.00 0.00 0.00 0.00 0.00 0.00 0.00 0.00 0.00 0.00 0.00 0.00 0.00 0.00 0.00 0.00 0.00 0.00 0.00 0.00 0.00 0.00 0.00 0.00 0.00 0.00 0.00 0.00 0.00 0.00 0.00 0.00 0.00 0.00 0.00 0.00 0.00 0.00 0.00
0.00 0.00 0.00 0.00 0.00 0.00 0.00 0.00 0.00 0.00 0.00 0.00 0.00 0.00 0.00 0.00 0.00 0.00 0.00 0.00 0.00 0.00 0.00 0.00 0.00 0.00 0.00 0.00 0.00 0.00 0.00 0.00 0.00 0.00 0.00 0.00 0.00 0.00 0.00 0.00 0.00 0.00 0.00
0.00 0.00 0.00 0.00 0.00 0.00 0.00 0.00 0.00 0.00 0.00 0.00 0.00 0.00 0.00 0.00 0.00 0.00 0.00 0.00 0.00 0.00 0.00 0.00 0.00 0.00 0.00 0.00 0.00 0.00 0.00 0.00 0.00 0.00 0.00 0.00 0.00 0.00 0.00 0.01 0.00 0.00 0.00
0.00 0.00 0.00 0.00 0.00 0.00 0.00 0.00 0.00 0.00 0.00 0.00 0.00 0.00 0.00 0.00 0.00 0.00 0.00 0.00 0.00 0.00 0.00 0.00 0.00 0.00 0.00 0.00 0.00 0.00 0.00 0.00 0.00 0.00 0.00 0.00 0.00 0.00 0.00 0.00 0.00 0.00 0.00
0.00 0.00 0.00 0.00 0.00 0.00 0.00 0.00 0.00 0.00 0.00 0.00 0.00 0.00 0.00 0.00 0.00 0.00 0.00 0.00 0.00 0.00 0.00 0.00 0.00 0.00 0.00 0.00 0.00 0.00 0.00 0.00 0.00 0.01 0.02 0.02 0.00 0.00 0.00 0.00 0.00 0.01 0.01
0.00 0.00 0.00 0.00 0.00 0.00 0.00 0.00 0.00 0.00 0.00 0.00 0.00 0.00 0.00 0.00 0.00 0.00 0.00 0.00 0.00 0.00 0.00 0.00 0.00 0.00 0.00 0.00 0.00 0.00 0.00 0.00 0.00 0.00 0.00 0.01 0.01 0.01 0.00 0.01 0.00 0.00 0.00
0.00 0.00 0.00 0.00 0.00 0.00 0.00 0.00 0.00 0.00 0.00 0.00 0.00 0.00 0.00 0.00 0.00 0.00 0.00 0.00 0.00 0.00 0.00 0.00 0.00 0.00 0.00 0.00 0.00 0.00 0.00 0.00 0.00 0.00 0.01 0.02 0.01 0.01 0.00 0.01 0.01 0.01 0.01
0.00 0.00 0.00 0.00 0.00 0.00 0.00 0.00 0.00 0.00 0.00 0.00 0.00 0.00 0.00 0.00 0.00 0.00 0.00 0.00 0.00 0.00 0.00 0.00 0.00 0.00 0.00 0.00 0.00 0.00 0.00 0.00 0.00 0.00 0.00 0.00 0.00 0.01 0.01 0.01 0.02 0.02 0.02
0.00 0.00 0.00 0.00 0.00 0.00 0.00 0.00 0.00 0.00 0.00 0.00 0.00 0.00 0.00 0.00 0.00 0.00 0.00 0.00 0.00 0.00 0.00 0.00 0.00 0.00 0.00 0.00 0.00 0.00 0.00 0.00 0.00 0.00 0.00 0.00 0.00 0.01 0.01 0.01 0.02 0.05 0.06
0.00 0.00 0.00 0.00 0.00 0.00 0.00 0.00 0.00 0.00 0.00 0.00 0.00 0.00 0.00 0.00 0.00 0.00 0.00 0.00 0.00 0.00 0.00 0.00 0.00 0.00 0.00 0.00 0.00 0.00 0.00 0.00 0.00 0.00 0.00 0.00 0.00 0.00 0.00 0.00 0.03 0.15 0.16
0.00 0.00 0.00 0.00 0.00 0.00 0.00 0.00 0.00 0.00 0.00 0.00 0.00 0.00 0.00 0.00 0.00 0.00 0.00 0.00 0.00 0.00 0.00 0.00 0.00 0.00 0.00 0.00 0.00 0.00 0.00 0.00 0.00 0.00 0.00 0.00 0.00 0.00 0.00 0.00 0.00 0.04 0.08
0.00 0.00 0.00 0.00 0.00 0.00 0.00 0.00 0.00 0.00 0.00 0.00 0.00 0.00 0.00 0.00 0.00 0.00 0.00 0.00 0.00 0.00 0.00 0.00 0.00 0.00 0.00 0.00 0.00 0.00 0.00 0.00 0.01 0.00 0.00 0.00 0.00 0.00 0.00 0.00 0.00 0.00 0.00
0.00 0.00 0.00 0.00 0.00 0.00 0.00 0.00 0.00 0.00 0.00 0.00 0.00 0.00 0.00 0.00 0.00 0.00 0.00 0.00 0.00 0.00 0.00 0.00 0.00 0.00 0.00 0.00 0.00 0.00 0.00 0.00 0.00 0.00 0.00 0.00 0.00 0.00 0.00 0.00 0.00 0.00 0.00
0.00 0.00 0.00 0.00 0.00 0.00 0.00 0.00 0.00 0.00 0.00 0.00 0.00 0.00 0.00 0.00 0.00 0.00 0.00 0.00 0.00 0.00 0.00 0.00 0.00 0.00 0.00 0.00 0.00 0.00 0.00 0.00 0.00 0.00 0.00 0.00 0.00 0.00 0.00 0.00 0.00 0.00 0.00
MSLP
1015.91 1015.76 1015.59 1015.36 1015.35 1015.46 1015.54 1015.69 1015.86 1015.93 1015.98 1016.06 1016.04 1016.24 1016.25 1016.30 1016.34 1016.29 1016.23 1016.29 1016.52 1016.64 1016.82 1016.89 1016.90 1016.90 1016.87 1016.94 1017.01 1017.05 1017.09 1017.15 1017.18 1017.18 1017.12 1017.09 1017.15 1017.24 1017.36 1017.47 1017.55 1017.66 1017.76
1015.74 1015.70 1015.76 1015.54 1015.60 1015.70 1015.76 1015.84 1015.97 1016.01 1016.01 1016.13 1016.20 1016.34 1016.42 1016.44 1016.59 1016.69 1016.71 1016.68 1016.79 1016.82 1016.93 1016.98 1017.11 1017.17 1017.24 1017.31 1017.37 1017.42 1017.52 1017.58 1017.64 1017.60 1017.53 1017.46 1017.43 1017.34 1017.51 1017.62 1017.72 1017.82 1017.87
1015.76 1015.67 1015.87 1015.81 1015.81 1016.01 1016.10 1016.15 1016.22 1016.27 1016.31 1016.29 1016.29 1016.42 1016.60 1016.61 1016.71 1016.88 1017.05 1017.08 1017.11 1017.25 1017.27 1017.24 1017.23 1017.31 1017.37 1017.47 1017.59 1017.68 1017.75 1017.80 1017.81 1017.81 1017.84 1017.93 1017.88 1017.71 1017.74 1017.88 1017.95 1017.99 1018.03
1015.53 1015.91 1015.96 1016.00 1016.00 1016.23 1016.35 1016.48 1016.46 1016.55 1016.64 1016.72 1016.78 1016.79 1016.72 1016.81 1016.89 1016.98 1017.17 1017.30 1017.30 1017.39 1017.50 1017.64 1017.62 1017.53 1017.46 1017.48 1017.63 1017.74 1017.84 1017.92 1017.93 1017.93 1017.99 1017.95 1017.86 1017.94 1017.75 1017.88 1018.01 1018.10 1018.16
1016.03 1016.21 1016.18 1016.12 1016.19 1016.40 1016.47 1016.57 1016.72 1016.77 1016.87 1016.98 1017.06 1017.07 1017.18 1017.24 1017.28 1017.28 1017.32 1017.36 1017.40 1017.46 1017.59 1017.75 1017.91 1017.93 1017.87 1017.81 1017.82 1017.88 1017.93 1017.92 1017.93 1017.93 1017.96 1017.93 1017.94 1017.86 1017.72 1017.62 1017.83 1017.98 1018.12
1016.45 1016.62 1016.44 1016.33 1016.46 1016.62 1016.80 1016.85 1016.97 1016.96 1017.01 1017.09 1017.19 1017.30 1017.35 1017.46 1017.52 1017.67 1017.68 1017.61 1017.54 1017.55 1017.61 1017.72 1017.89 1018.00 1018.03 1017.97 1017.96 1018.04 1018.11 1018.22 1018.21 1018.13 1017.92 1017.69 1017.52 1017.79 1017.80 1017.40 1017.59 1017.80 1017.90
1016.97 1016.87 1016.63 1016.57 1016.77 1016.85 1017.03 1017.14 1017.21 1017.25 1017.29 1017.32 1017.31 1017.36 1017.41 1017.49 1017.56 1017.61 1017.74 1017.82 1017.79 1017.73 1017.72 1017.81 1017.80 1017.87 1017.93 1017.93 1017.92 1017.91 1017.94 1018.05 1018.12 1018.15 1017.94 1017.58 1017.51 1017.65 1017.98 1017.51 1017.46 1017.60 1017.77
1017.10 1017.05 1017.20 1017.04 1017.03 1017.09 1017.11 1017.20 1017.25 1017.26 1017.28 1017.41 1017.46 1017.50 1017.53 1017.60 1017.69 1017.75 1017.71 1017.66 1017.66 1017.71 1017.81 1017.90 1017.97 1018.02 1017.95 1017.92 1017.89 1017.85 1017.82 1017.83 1018.05 1017.97 1017.77 1017.70 1017.60 1017.54 1017.64 1017.47 1017.28 1017.38 1017.53
1017.18 1017.33 1017.76 1017.53 1017.52 1017.60 1017.42 1017.41 1017.37 1017.36 1017.35 1017.44 1017.49 1017.58 1017.59 1017.71 1017.84 1017.88 1017.85 1017.80 1017.74 1017.76 1017.70 1017.63 1017.68 1017.76 1017.91 1017.95 1017.92 1017.85 1017.69 1017.53 1017.57 1018.11 1017.85 1017.44 1017.06 1017.18 1017.42 1017.49 1017.13 1017.11 1017.21
1017.63 1018.05 1018.21 1018.00 1017.87 1017.92 1017.95 1017.77 1017.57 1017.53 1017.52 1017.57 1017.55 1017.60 1017.70 1017.86 1017.91 1017.95 1017.85 1017.70 1017.66 1017.64 1017.67 1017.69 1017.75 1017.69 1017.58 1017.54 1017.60 1017.64 1017.61 1017.53 1017.54 1017.46 1017.55 1017.25 1017.01 1017.00 1017.06 1017.11 1017.27 1016.89 1016.72
1018.45 1018.79 1018.69 1018.41 1018.10 1017.87 1018.00 1018.03 1018.01 1017.93 1017.88 1018.03 1018.10 1018.04 1017.99 1018.07 1018.05 1017.94 1017.77 1017.68 1017.68 1017.72 1017.75 1017.80 1017.76 1017.66 1017.66 1017.71 1017.64 1017.52 1017.39 1017.26 1017.28 1017.05 1017.09 1017.03 1016.89 1016.77 1016.63 1016.60 1016.78 1016.73 1016.48
1019.38 1019.33 1019.10 1018.80 1018.50 1018.15 1017.96 1018.16 1018.32 1018.23 1018.26 1018.32 1018.38 1018.22 1018.13 1018.23 1018.03 1017.83 1017.70 1017.89 1018.03 1017.99 1018.03 1017.94 1017.85 1017.82 1017.64 1017.53 1017.40 1017.32 1017.37 1017.26 1017.25 1016.98 1016.66 1016.53 1016.39 1016.20 1016.16 1016.20 1016.43 1016.59 1016.45
1019.94 1019.72 1019.47 1019.16 1018.85 1018.72 1018.69 1018.62 1018.96 1018.99 1019.02 1019.08 1019.00 1018.79 1018.60 1018.48 1018.25 1017.99 1017.83 1017.93 1017.97 1018.12 1018.14 1018.08 1018.16 1018.01 1017.98 1017.89 1017.37 1017.16 1017.08 1017.06 1017.01 1016.74 1016.30 1016.04 1015.94 1015.84 1015.96 1016.05 1016.16 1016.24 1016.24
1020.38 1020.15 1019.82 1019.49 1019.30 1019.18 1019.13 1019.25 1019.53 1019.68 1019.76 1019.60 1019.68 1019.46 1019.21 1019.16 1019.09 1018.93 1018.67 1018.54 1018.50 1018.41 1018.18 1018.07 1017.98 1017.69 1017.60 1017.55 1017.50 1017.33 1016.83 1016.66 1016.56 1016.44 1016.18 1015.82 1015.71 1015.64 1015.62 1015.72 1015.66 1015.74 1015.72
1020.71 1020.51 1020.24 1020.02 1019.83 1019.62 1019.47 1019.66 1019.94 1020.17 1020.15 1020.11 1019.93 1019.92 1019.80 1019.68 1019.45 1019.50 1019.50 1019.51 1019.32 1018.89 1018.52 1018.26 1018.09 1017.81 1017.48 1017.18 1016.95 1016.82 1016.71 1016.62 1016.36 1016.19 1015.95 1015.64 1015.44 1015.28 1015.17 1015.05 1014.97 1015.01 1014.97
1021.07 1020.86 1020.66 1020.57 1020.24 1019.90 1019.98 1020.18 1020.45 1020.45 1020.39 1020.26 1020.35 1020.54 1020.35 1020.24 1020.24 1020.13 1020.09 1020.01 1019.77 1019.46 1019.22 1018.91 1018.68 1018.18 1017.83 1017.44 1017.01 1016.73 1016.58 1016.35 1016.27 1016.00 1015.75 1015.38 1015.09 1014.81 1014.65 1014.49 1014.34 1014.29 1014.20
1021.83 1021.37 1020.91 1020.48 1020.47 1020.31 1020.55 1020.75 1020.82 1020.80 1020.85 1020.94 1021.08 1021.02 1021.05 1020.85 1020.93 1020.84 1020.68 1020.46 1020.19 1019.78 1019.31 1018.98 1018.58 1018.12 1017.94 1017.52 1017.32 1016.79 1016.46 1016.20 1016.02 1015.77 1015.62 1015.56 1015.25 1015.00 1014.99 1014.81 1014.54 1014.07 1013.41
1022.37 1022.09 1021.14 1020.69 1020.70 1020.72 1021.01 1021.28 1021.37 1021.48 1021.44 1021.60 1021.66 1021.66 1021.56 1021.49 1021.37 1021.32 1021.35 1021.22 1021.03 1020.50 1020.18 1019.53 1019.35 1018.67 1018.55 1018.04 1017.68 1016.95 1016.69 1016.21 1015.95 1015.85 1015.84 1015.89 1015.77 1015.76 1015.51 1015.60 1015.37 1015.16 1014.82
1022.59 1022.21 1021.80 1021.28 1021.06 1021.20 1021.21 1021.56 1021.80 1022.19 1022.11 1022.19 1022.24 1022.27 1022.16 1022.04 1021.96 1022.06 1021.99 1021.92 1021.53 1021.38 1021.09 1020.80 1020.34 1020.01 1019.62 1018.92 1018.14 1017.20 1016.87 1016.61 1016.65 1016.62 1016.63 1016.91 1016.80 1016.67 1016.30 1016.30 1015.97 1015.53 1015.11
1022.78 1022.53 1022.38 1022.11 1021.60 1021.44 1021.44 1021.90 1022.25 1022.48 1022.72 1022.87 1022.89 1022.98 1022.84 1022.81 1022.71 1022.67 1022.61 1022.39 1021.99 1021.91 1021.76 1021.44 1021.18 1020.80 1020.49 1019.78 1018.66 1017.70 1017.34 1017.40 1017.40 1017.48 1017.46 1017.94 1017.58 1017.18 1017.30 1016.92 1016.55 1015.85 1015.81
1023.10 1022.92 1022.89 1022.40 1022.48 1021.83 1022.25 1022.32 1022.57 1023.05 1023.29 1023.60 1023.79 1023.78 1023.46 1023.27 1023.33 1023.10 1023.23 1022.83 1022.47 1022.48 1022.48 1022.22 1021.72 1021.45 1020.78 1020.08 1019.24 1018.45 1017.86 1017.87 1018.24 1018.49 1018.37 1018.60 1018.41 1018.15 1017.94 1017.69 1017.12 1016.66 1016.47
1023.30 1023.45 1023.19 1022.84 1022.82 1022.28 1022.61 1022.66 1023.11 1023.49 1024.14 1024.08 1024.55 1024.42 1023.97 1023.72 1023.81 1023.49 1023.90 1023.41 1023.16 1023.13 1022.86 1022.66 1022.50 1022.33 1021.90 1021.35 1020.97 1020.25 1019.61 1018.64 1018.48 1019.03 1019.04 1019.20 1019.29 1018.87 1018.62 1018.17 1017.71 1017.24 1017.09
1023.47 1023.59 1023.33 1023.31 1023.13 1023.23 1022.98 1023.12 1023.28 1023.59 1024.47 1024.51 1024.86 1025.03 1024.89 1024.55 1024.24 1024.28 1024.38 1023.92 1023.76 1023.67 1023.69 1023.56 1023.32 1023.20 1023.15 1022.45 1022.19 1022.19 1021.84 1021.50 1020.70 1019.56 1019.80 1019.99 1019.90 1019.69 1019.41 1018.90 1018.54 1017.97 1017.71
1023.74 1023.61 1023.90 1023.92 1023.47 1023.86 1023.61 1023.71 1024.18 1024.64 1025.30 1025.46 1025.53 1025.55 1025.41 1025.39 1025.11 1024.74 1024.95 1024.53 1024.54 1024.51 1024.37 1024.23 1024.16 1024.06 1023.84 1023.61 1023.28 1023.25 1023.17 1023.14 1022.54 1021.23 1020.72 1020.70 1020.67 1020.39 1019.95 1019.39 1019.04 1018.47 1018.19
1023.91 1023.99 1024.15 1023.79 1024.25 1024.35 1024.14 1024.37 1024.95 1025.53 1025.75 1025.62 1026.08 1026.00 1026.17 1025.85 1025.74 1025.65 1025.35 1025.14 1025.19 1025.11 1024.94 1024.91 1024.79 1024.50 1024.45 1024.46 1024.42 1024.16 1023.85 1023.40 1023.54 1023.27 1021.78 1021.10 1021.12 1020.68 1020.33 1019.88 1019.43 1018.94 1018.51
1023.93 1024.08 1024.31 1024.45 1024.74 1024.70 1024.79 1025.21 1025.53 1025.91 1026.09 1026.23 1026.69 1026.66 1026.72 1026.61 1026.27 1026.26 1025.73 1025.64 1025.63 1025.55 1025.33 1025.32 1025.37 1025.25 1025.03 1025.04 1024.95 1024.73 1024.54 1024.38 1024.14 1023.96 1023.43 1022.61 1021.84 1020.78 1020.46 1019.98 1019.55 1019.10 1018.69
Thickness
5729 5729 5730 5734 5735 5734 5734 5734 5732 5732 5731 5729 5729 5726 5725 5724 5723 5722 5722 5720 5716 5715 5714 5713 5713 5713 5715 5715 5715 5716 5716 5716 5716 5716 5718 5718 5717 5716 5715 5713 5713 5711 5710
5731 5730 5730 5733 5733 5733 5733 5733 5732 5732 5733 5731 5730 5728 5726 5725 5722 5721 5720 5719 5717 5716 5715 5715 5715 5715 5714 5715 5716 5716 5716 5715 5715 5715 5716 5716 5716 5716 5715 5714 5713 5711 5710
5731 5730 5729 5730 5731 5730 5730 5730 5730 5731 5731 5731 5731 5729 5726 5725 5724 5722 5720 5719 5718 5716 5716 5716 5716 5716 5717 5717 5716 5716 5715 5714 5714 5714 5714 5714 5713 5714 5714 5713 5712 5711 5710
5732 5729 5730 5729 5730 5729 5728 5727 5728 5728 5728 5728 5727 5727 5727 5725 5723 5722 5720 5719 5718 5717 5717 5716 5716 5717 5718 5718 5717 5716 5715 5714 5714 5713 5713 5713 5713 5712 5715 5713 5712 5711 5710
5729 5727 5728 5729 5729 5728 5728 5727 5726 5726 5726 5725 5725 5725 5724 5723 5722 5721 5720 5719 5718 5717 5716 5715 5716 5717 5718 5718 5718 5717 5716 5715 5714 5714 5714 5713 5713 5713 5715 5716 5714 5712 5711
5726 5725 5727 5728 5727 5726 5725 5725 5725 5725 5725 5724 5723 5722 5722 5721 5721 5719 5719 5718 5718 5718 5717 5716 5715 5715 5716 5717 5717 5717 5716 5715 5714 5714 5715 5716 5717 5712 5714 5718 5716 5714 5713
5722 5723 5726 5727 5724 5724 5723 5723 5723 5722 5722 5721 5721 5721 5721 5720 5720 5720 5719 5719 5718 5718 5718 5717 5717 5716 5715 5716 5717 5717 5717 5717 5716 5715 5716 5718 5718 5715 5712 5716 5716 5714 5712
5721 5722 5721 5723 5723 5722 5723 5723 5723 5723 5723 5721 5720 5719 5719 5718 5717 5717 5717 5718 5719 5719 5718 5717 5716 5716 5716 5716 5716 5717 5717 5718 5716 5717 5717 5717 5717 5717 5715 5716 5716 5715 5713
5720 5720 5716 5719 5719 5719 5721 5722 5723 5723 5723 5722 5722 5720 5719 5717 5715 5714 5714 5715 5716 5717 5718 5719 5719 5717 5716 5716 5715 5716 5717 5718 5719 5715 5716 5718 5721 5718 5715 5713 5716 5716 5714
5715 5712 5711 5714 5715 5716 5717 5719 5722 5723 5722 5722 5722 5721 5719 5716 5716 5714 5714 5714 5714 5714 5714 5715 5715 5717 5717 5717 5716 5715 5716 5717 5717 5717 5715 5716 5717 5717 5716 5715 5712 5715 5715
5706 5704 5705 5709 5712 5716 5715 5715 5717 5718 5719 5718 5717 5716 5716 5715 5714 5714 5715 5715 5715 5713 5712 5710 5710 5711 5711 5711 5712 5713 5714 5716 5715 5717 5716 5715 5715 5714 5714 5714 5712 5712 5714
5694 5698 5701 5705 5708 5712 5713 5713 5712 5713 5714 5713 5713 5715 5714 5713 5714 5715 5715 5713 5711 5711 5709 5709 5709 5708 5709 5709 5710 5710 5710 5711 5711 5712 5714 5714 5714 5715 5714 5712 5708 5706 5706
5688 5693 5697 5700 5704 5706 5706 5707 5705 5706 5707 5707 5708 5709 5709 5709 5710 5710 5711 5710 5709 5707 5707 5706 5705 5705 5704 5705 5708 5709 5708 5707 5707 5708 5711 5712 5712 5711 5709 5707 5704 5702 5701
5682 5686 5691 5695 5697 5698 5700 5700 5699 5698 5698 5701 5700 5701 5702 5701 5701 5702 5702 5702 5702 5702 5703 5703 5703 5703 5705 5704 5702 5703 5706 5706 5705 5705 5706 5708 5708 5707 5705 5702 5701 5698 5697
5675 5678 5683 5686 5690 5692 5694 5693 5691 5690 5691 5692 5694 5693 5694 5693 5693 5692 5692 5692 5693 5694 5695 5697 5697 5699 5700 5701 5702 5702 5702 5702 5702 5701 5701 5702 5703 5703 5702 5700 5699 5696 5695
5665 5671 5675 5677 5682 5685 5686 5684 5683 5682 5683 5684 5684 5682 5684 5684 5684 5684 5682 5682 5684 5685 5687 5688 5688 5691 5692 5694 5696 5696 5697 5697 5696 5696 5696 5698 5698 5699 5698 5697 5696 5694 5692
5651 5660 5667 5674 5675 5677 5675 5674 5674 5674 5674 5673 5672 5672 5672 5673 5671 5671 5672 5673 5674 5676 5679 5681 5683 5686 5687 5688 5689 5691 5691 5691 5691 5691 5689 5687 5686 5688 5687 5687 5686 5687 5691
5639 5646 5660 5666 5667 5668 5666 5664 5663 5663 5663 5662 5661 5660 5661 5661 5661 5661 5661 5660 5661 5664 5665 5669 5670 5675 5676 5679 5679 5683 5683 5683 5681 5680 5680 5677 5675 5672 5672 5671 5669 5669 5669
5633 5639 5645 5654 5657 5658 5659 5656 5654 5651 5651 5651 5651 5649 5650 5650 5647 5647 5648 5647 5649 5649 5650 5652 5654 5656 5658 5662 5667 5673 5672 5671 5668 5665 5663 5659 5656 5654 5656 5654 5654 5655 5655
5625 5630 5633 5638 5645 5649 5651 5648 5646 5643 5639 5638 5638 5638 5638 5635 5634 5634 5634 5635 5637 5635 5635 5637 5638 5640 5641 5645 5653 5659 5657 5653 5648 5647 5645 5639 5639 5638 5636 5637 5638 5640 5637
5620 5623 5625 5632 5633 5642 5640 5641 5639 5633 5629 5625 5623 5623 5625 5625 5621 5622 5620 5622 5624 5622 5619 5620 5623 5624 5629 5633 5637 5641 5643 5639 5629 5627 5624 5618 5617 5617 5616 5616 5618 5619 5617
5613 5614 5618 5623 5624 5631 5630 5630 5626 5623 5618 5616 5610 5609 5611 5612 5609 5610 5604 5607 5608 5607 5607 5606 5606 5605 5609 5612 5612 5616 5617 5621 5615 5608 5605 5601 5595 5595 5593 5595 5595 5596 5594
5605 5607 5610 5613 5616 5616 5620 5618 5617 5614 5605 5604 5600 5597 5596 5597 5598 5595 5592 5595 5594 5593 5591 5589 5589 5588 5586 5590 5591 5589 5589 5586 5589 5591 5585 5579 5575 5572 5571 5573 5571 5571 5572
5594 5598 5598 5600 5606 5605 5607 5606 5602 5598 5592 5588 5587 5586 5585 5582 5582 5584 5580 5582 5580 5578 5577 5575 5572 5571 5571 5570 5570 5568 5566 5564 5569 5571 5567 5562 5558 5555 5554 5553 5552 5551 5549
5586 5587 5588 5595 5593 5593 5596 5594 5589 5583 5580 5581 5576 5576 5573 5573 5571 5569 5570 5570 5567 5565 5564 5562 5561 5561 5559 5556 5554 5552 5551 5551 5547 5547 5554 5554 5547 5545 5543 5540 5538 5535 5532
5579 5580 5580 5582 5582 5583 5582 5579 5576 5573 5572 5570 5565 5563 5561 5560 5561 5558 5560 5559 5556 5555 5555 5553 5550 5549 5548 5545 5543 5541 5540 5536 5535 5530 5530 5533 5535 5539 5535 5529 5525 5524 5520